Tracking 29892 objects as of 21-Nov-2024
HD Live streaming from Space Station
objects crossing your sky now

STARLINK-3334

Track STARLINK-3334 now!
10-day predictions
STARLINK-3334 is classified as:


NORAD ID: 50823
Int'l Code: 2022-001W
Perigee: 545.9 km
Apogee: 547.8 km
Inclination: 53.2 °
Period: 95.4 minutes
Semi major axis: 6917 km
RCS: Unknown
Launch date: January 6, 2022
Source: United States (US)
Launch site: AIR FORCE EASTERN TEST RANGE (AFETR)
Your satellite tracking list
Your tracking list is empty




NASA's NSSDC Master Catalog

Two Line Element Set (TLE):
1 50823U 22001W   24325.89485047  .00001008  00000-0  81400-4 0  9990
2 50823  53.2150 136.0667 0001395  96.0329 264.0822 15.08845318158889
Source of the keplerian elements: AFSPC